User: anonymous   Login
Location: Caltech
(34.1382°N, 118.1253°W)
Time: 09:42:09
(UTC-07:00)
Language:

OAO 2 Rocket - Orbit

View from above orbital plane
View from above orbital plane
View from above satellite
View from above satellite

Ground track
Ground track

The orbit data is extracted from the following two-line orbital elements,

1 03598U 68110B   14302.68839666  .00000645  00000-0  15403-3 0  7497
2 03598 034.9948 005.1775 0049541 350.0901 161.2851 14.53764709426440
Epoch (UTC): 29 October 2014 16:31:17
Eccentricity: 0.0049541
inclination: 34.9948°
perigee height: 678 km
apogee height: 748 km
right ascension of ascending node: 5.1775°
argument of perigee: 350.0901°
revolutions per day: 14.53764709
mean anomaly at epoch: 161.2851°
orbit number at epoch: 42644

The dashed part of the orbit path shows where the satellite is in the earth's shadow,  

DLR